TRA736 GMMX-LFPO

Flight info

Callsign TRA736
Flight time N/A
Altitude 36000
Route MABAP UR722 SAK UG5 KORIS DCT XULIM DCT VJF DCT SVL DCT HIJ DCT RUSEM DCT SOTUK DCT USOKO DCT TLD DCT SIE DCT EDIGO DCT DGO DCT CEGAM DCT BAGAS DCT SSN DCT LUSEM DCT LULUT DCT TUDRA/N0387F280 DCT BEVOL UT158 AMB
Aircraft B738/M-SDE2E3FGHIRWXY/LB1

Departure

Time 2026-05-08 08:53
Airport Marrakesh Menara Airport (GMMX)

Arrival

Time N/A
Airport Paris-Orly Airport (LFPO)
Time Latitude Longitude Altitude Speed Heading
2026-05-08 08:40 31.60130 -8.02310 1548 ft 0 kts 276°
2026-05-08 08:48 31.60126 -8.02283 1540 ft 4 kts 285°
2026-05-08 08:48 31.60117 -8.02254 1544 ft 4 kts 302°
2026-05-08 08:48 31.60100 -8.02231 1544 ft 4 kts 333°
2026-05-08 08:48 31.60082 -8.02226 1542 ft 0 kts
2026-05-08 08:51 31.60119 -8.02221 1545 ft 16 kts
2026-05-08 08:51 31.60243 -8.02208 1541 ft 18 kts
2026-05-08 08:51 31.60361 -8.02193 1545 ft 16 kts 15°
2026-05-08 08:51 31.60455 -8.02165 1548 ft 11 kts
2026-05-08 08:52 31.60526 -8.02150 1548 ft 9 kts 19°
2026-05-08 08:52 31.60561 -8.02182 1547 ft 6 kts 279°
2026-05-08 08:52 31.60566 -8.02225 1549 ft 9 kts 276°
2026-05-08 08:52 31.60594 -8.02553 1545 ft 76 kts 276°
2026-05-08 08:53 31.60672 -8.03434 1537 ft 139 kts 276°
2026-05-08 08:53 31.60781 -8.04738 1758 ft 171 kts 275°
2026-05-08 08:53 31.60896 -8.06114 2600 ft 166 kts 276°
2026-05-08 08:53 31.61035 -8.07450 3388 ft 168 kts 276°
2026-05-08 08:54 31.61168 -8.08896 3701 ft 196 kts 275°
2026-05-08 08:54 31.61315 -8.10585 3953 ft 221 kts 275°
2026-05-08 08:54 31.61476 -8.12463 4291 ft 238 kts 276°
2026-05-08 08:54 31.61651 -8.14423 5011 ft 244 kts 276°
2026-05-08 08:55 31.61975 -8.16377 5894 ft 246 kts 293°
2026-05-08 08:55 31.63014 -8.17982 6607 ft 254 kts 321°
2026-05-08 08:55 31.64614 -8.18901 7317 ft 261 kts 346°
2026-05-08 08:55 31.66441 -8.18962 8059 ft 267 kts
2026-05-08 08:56 31.68278 -8.18511 8778 ft 273 kts 11°
2026-05-08 08:56 31.70114 -8.17986 9487 ft 278 kts 12°
2026-05-08 08:56 31.72003 -8.17424 10183 ft 282 kts 12°
2026-05-08 08:56 31.73912 -8.16851 10861 ft 285 kts 12°
2026-05-08 08:57 31.75844 -8.16274 11560 ft 287 kts 11°
2026-05-08 08:57 31.77791 -8.15692 12238 ft 291 kts 11°
2026-05-08 08:57 31.79769 -8.15165 12907 ft 292 kts
2026-05-08 08:57 31.81818 -8.15274 13262 ft 304 kts 349°
2026-05-08 08:58 31.83991 -8.15603 13452 ft 326 kts 348°
2026-05-08 08:58 31.86275 -8.15965 13626 ft 346 kts 348°
2026-05-08 08:58 31.88731 -8.16345 13874 ft 363 kts 349°
2026-05-08 08:58 31.91252 -8.16719 14359 ft 370 kts 349°
2026-05-08 08:59 31.93831 -8.17088 14974 ft 373 kts 349°
2026-05-08 08:59 31.96418 -8.17452 15584 ft 376 kts 349°
2026-05-08 08:59 31.99035 -8.17819 16147 ft 381 kts 348°
2026-05-08 08:59 32.01686 -8.18192 16710 ft 386 kts 348°
2026-05-08 09:00 32.04361 -8.18567 17288 ft 389 kts 348°
2026-05-08 09:00 32.07030 -8.18943 17845 ft 394 kts 348°
2026-05-08 09:00 32.09764 -8.19327 18395 ft 398 kts 348°
2026-05-08 09:00 32.12526 -8.19677 18920 ft 403 kts 352°
2026-05-08 09:01 32.15359 -8.19464 19467 ft 412 kts
2026-05-08 09:01 32.18208 -8.18977 19988 ft 415 kts
2026-05-08 09:01 32.21074 -8.18442 20475 ft 419 kts
2026-05-08 09:01 32.23962 -8.17907 20972 ft 422 kts
2026-05-08 09:02 32.26873 -8.17387 21471 ft 425 kts
2026-05-08 09:02 32.29771 -8.16889 21932 ft 428 kts
2026-05-08 09:02 32.32725 -8.16397 22419 ft 430 kts
2026-05-08 09:02 32.35700 -8.15909 22923 ft 433 kts
2026-05-08 09:03 32.38695 -8.15422 23392 ft 436 kts
2026-05-08 09:03 32.41714 -8.14932 23790 ft 439 kts
2026-05-08 09:03 32.44752 -8.14438 24156 ft 443 kts
2026-05-08 09:03 32.47815 -8.13940 24512 ft 446 kts
2026-05-08 09:04 32.50902 -8.13437 24837 ft 450 kts
2026-05-08 09:04 32.55962 -8.12611 25344 ft 455 kts
2026-05-08 09:04 32.68647 -8.10532 26779 ft 466 kts 359°
2026-05-08 09:04 32.81672 -8.08409 27960 ft 478 kts 358°
2026-05-08 09:05 32.95003 -8.05772 29116 ft 505 kts 11°
2026-05-08 09:05 33.07596 -7.97159 30225 ft 527 kts 23°
2026-05-08 09:05 33.20430 -7.88609 31312 ft 527 kts 21°
2026-05-08 09:05 33.33244 -7.80231 32587 ft 524 kts 21°
2026-05-08 09:06 33.45845 -7.71855 33664 ft 525 kts 21°
2026-05-08 09:06 33.58601 -7.63552 34685 ft 518 kts 18°
2026-05-08 09:06 33.71425 -7.55935 35747 ft 510 kts 17°
2026-05-08 09:06 33.84175 -7.48250 36113 ft 518 kts 18°
2026-05-08 09:07 34.10198 -7.32313 35973 ft 524 kts 18°
2026-05-08 09:07 34.35625 -7.16631 35914 ft 499 kts 18°
2026-05-08 09:08 34.59920 -7.01609 36041 ft 494 kts 18°
2026-05-08 09:08 34.84907 -6.86282 36080 ft 514 kts 18°
2026-05-08 09:09 35.10676 -6.70344 35984 ft 518 kts 18°
2026-05-08 09:09 35.35810 -6.54711 35924 ft 500 kts 18°
2026-05-08 09:10 35.60180 -6.39057 36020 ft 493 kts 20°
2026-05-08 09:10 35.84716 -6.22971 36020 ft 508 kts 20°
2026-05-08 09:11 36.10035 -6.06611 35997 ft 514 kts 20°
2026-05-08 09:11 36.35473 -5.95449 35995 ft 468 kts 356°
2026-05-08 09:12 36.61353 -5.90907 36022 ft 471 kts 359°
2026-05-08 09:12 36.87663 -5.86197 36028 ft 485 kts 360°
2026-05-08 09:13 37.14520 -5.81329 35948 ft 485 kts
2026-05-08 09:13 37.40677 -5.76572 35931 ft 470 kts
2026-05-08 09:14 37.53006 -5.70296 35969 ft 484 kts 22°
2026-05-08 09:14 37.65066 -5.62641 36034 ft 487 kts 20°
2026-05-08 09:14 37.89868 -5.47613 36016 ft 502 kts 21°
2026-05-08 09:15 38.14974 -5.32178 35905 ft 497 kts 21°
2026-05-08 09:15 38.39275 -5.17152 35892 ft 481 kts 21°
2026-05-08 09:16 38.63651 -5.03237 36014 ft 482 kts 17°
2026-05-08 09:16 38.89048 -4.90356 35976 ft 498 kts 19°
2026-05-08 09:17 39.07414 -4.80840 35941 ft 492 kts 19°
2026-05-08 09:17 39.13634 -4.77601 35931 ft 482 kts 19°
2026-05-08 09:18 39.19857 -4.74358 35944 ft 483 kts 19°
2026-05-08 09:18 39.26091 -4.71107 35955 ft 484 kts 20°
2026-05-08 09:19 39.32348 -4.67841 35944 ft 486 kts 20°
2026-05-08 09:19 39.38576 -4.64586 35940 ft 487 kts 20°
2026-05-08 09:20 39.44860 -4.61295 35937 ft 487 kts 20°
2026-05-08 09:20 39.51145 -4.57998 35952 ft 488 kts 21°
2026-05-08 09:21 39.57430 -4.54694 35927 ft 487 kts 21°
2026-05-08 09:23 39.79339 -4.43129 35943 ft 486 kts 21°
2026-05-08 09:23 39.85542 -4.39809 35944 ft 485 kts 22°
2026-05-08 09:24 39.91774 -4.36455 35947 ft 485 kts 22°
2026-05-08 09:24 39.97999 -4.33098 35966 ft 484 kts 23°
2026-05-08 09:25 40.04129 -4.29450 35963 ft 484 kts 25°
2026-05-08 09:25 40.10171 -4.25679 35959 ft 484 kts 26°
2026-05-08 09:26 40.16265 -4.21905 35958 ft 485 kts 25°
2026-05-08 09:26 40.22369 -4.18162 35964 ft 484 kts 25°
2026-05-08 09:27 40.28466 -4.14431 35957 ft 483 kts 25°
2026-05-08 09:27 40.34544 -4.10705 35964 ft 482 kts 25°
2026-05-08 09:28 40.40564 -4.07004 35977 ft 481 kts 26°
2026-05-08 09:28 40.46618 -4.03275 35968 ft 480 kts 26°
2026-05-08 09:29 40.52668 -3.99539 35965 ft 480 kts 26°
2026-05-08 09:29 40.58716 -3.95798 35965 ft 480 kts 26°
2026-05-08 09:30 40.64724 -3.92074 35972 ft 481 kts 26°
2026-05-08 09:30 40.70775 -3.88316 35968 ft 481 kts 26°
2026-05-08 09:31 40.76832 -3.84547 35977 ft 482 kts 26°
2026-05-08 09:31 40.82894 -3.80767 35937 ft 482 kts 26°
2026-05-08 09:32 40.88916 -3.77005 35944 ft 482 kts 26°
2026-05-08 09:32 40.94974 -3.73212 35947 ft 482 kts 26°
2026-05-08 09:33 41.01032 -3.69413 35944 ft 482 kts 26°
2026-05-08 09:33 41.07091 -3.65605 35953 ft 482 kts 26°
2026-05-08 09:34 41.13099 -3.61823 35946 ft 481 kts 27°
2026-05-08 09:34 41.19195 -3.58185 35938 ft 480 kts 24°
2026-05-08 09:35 41.25373 -3.54869 35936 ft 478 kts 23°
2026-05-08 09:35 41.31526 -3.51564 35932 ft 476 kts 24°
2026-05-08 09:36 41.37597 -3.48245 35935 ft 474 kts 24°
2026-05-08 09:36 41.43681 -3.44898 35930 ft 472 kts 24°
2026-05-08 09:37 41.49746 -3.41557 35921 ft 471 kts 24°
2026-05-08 09:37 41.55752 -3.38243 35937 ft 470 kts 24°
2026-05-08 09:38 41.61802 -3.34899 35937 ft 471 kts 24°
2026-05-08 09:38 41.67871 -3.31541 35941 ft 472 kts 24°
2026-05-08 09:39 41.73955 -3.28168 35944 ft 474 kts 24°
2026-05-08 09:39 41.80017 -3.24800 35942 ft 476 kts 25°
2026-05-08 09:40 41.86144 -3.21390 35948 ft 477 kts 25°
2026-05-08 09:40 41.92285 -3.17965 35951 ft 479 kts 25°
2026-05-08 09:41 41.98446 -3.14521 35935 ft 480 kts 24°
2026-05-08 09:41 42.04566 -3.11093 35954 ft 480 kts 24°
2026-05-08 09:42 42.10740 -3.07627 35941 ft 481 kts 24°
2026-05-08 09:42 42.16912 -3.04156 35930 ft 480 kts 24°
2026-05-08 09:43 42.23074 -3.00683 35934 ft 480 kts 24°
2026-05-08 09:43 42.29186 -2.97231 35930 ft 479 kts 24°
2026-05-08 09:44 42.35332 -2.93754 35925 ft 478 kts 24°
2026-05-08 09:44 42.41459 -2.90280 35938 ft 476 kts 24°
2026-05-08 09:45 42.47217 -2.85970 35928 ft 471 kts 41°
2026-05-08 09:45 42.52068 -2.80155 35931 ft 468 kts 45°
2026-05-08 09:46 42.56879 -2.74210 35937 ft 467 kts 45°
2026-05-08 09:46 42.61712 -2.68311 35944 ft 467 kts 44°
2026-05-08 09:47 42.66549 -2.62451 35933 ft 466 kts 44°
2026-05-08 09:47 42.71382 -2.56595 35938 ft 465 kts 44°
2026-05-08 09:48 42.76174 -2.50773 35944 ft 465 kts 44°
2026-05-08 09:48 42.80995 -2.44901 35934 ft 465 kts 44°
2026-05-08 09:49 42.85810 -2.39023 35942 ft 465 kts 44°
2026-05-08 09:49 42.90629 -2.33129 35941 ft 466 kts 44°
2026-05-08 09:50 42.95421 -2.27256 35916 ft 466 kts 44°
2026-05-08 09:50 43.00236 -2.21335 35948 ft 466 kts 44°
2026-05-08 09:51 43.05049 -2.15382 35941 ft 467 kts 44°
2026-05-08 09:51 43.09875 -2.09403 35930 ft 469 kts 44°
2026-05-08 09:52 43.14685 -2.03436 35930 ft 471 kts 44°
2026-05-08 09:52 43.19544 -1.97400 35920 ft 472 kts 44°
2026-05-08 09:53 43.24412 -1.91343 35917 ft 473 kts 44°
2026-05-08 09:53 43.29279 -1.85273 35905 ft 472 kts 43°
2026-05-08 09:54 43.34585 -1.80124 35927 ft 472 kts 28°
2026-05-08 09:54 43.40343 -1.75777 35912 ft 472 kts 32°
2026-05-08 09:55 43.45831 -1.70829 35914 ft 471 kts 34°
2026-05-08 09:55 43.51253 -1.65757 35935 ft 471 kts 34°
2026-05-08 09:56 43.56661 -1.60778 35937 ft 470 kts 34°
2026-05-08 09:56 43.62120 -1.55808 35920 ft 470 kts 34°
2026-05-08 09:57 43.70303 -1.48367 35921 ft 469 kts 33°
2026-05-08 09:57 43.75712 -1.43432 35931 ft 469 kts 33°
2026-05-08 09:58 43.81153 -1.38454 35933 ft 469 kts 33°
2026-05-08 09:58 43.86604 -1.33456 35943 ft 470 kts 33°
2026-05-08 09:59 43.92056 -1.28445 35935 ft 470 kts 33°
2026-05-08 09:59 43.97511 -1.23421 35935 ft 471 kts 33°
2026-05-08 10:00 44.02927 -1.18421 35950 ft 470 kts 33°
2026-05-08 10:00 44.08376 -1.13380 35927 ft 470 kts 32°
2026-05-08 10:01 44.13815 -1.08337 35938 ft 470 kts 32°
2026-05-08 10:01 44.19246 -1.03290 35937 ft 469 kts 32°
2026-05-08 10:02 44.24668 -0.98240 35939 ft 468 kts 32°
2026-05-08 10:02 44.30039 -0.93228 35932 ft 468 kts 32°
2026-05-08 10:03 44.35443 -0.88176 35937 ft 467 kts 32°
2026-05-08 10:03 44.40858 -0.83185 35931 ft 465 kts 28°
2026-05-08 10:04 44.46548 -0.78921 35941 ft 464 kts 25°
2026-05-08 10:04 44.52265 -0.74888 35941 ft 463 kts 24°
2026-05-08 10:05 44.57996 -0.70791 35949 ft 462 kts 25°
2026-05-08 10:05 44.63702 -0.66642 35964 ft 461 kts 25°
2026-05-08 10:06 44.69342 -0.62506 35957 ft 460 kts 25°
2026-05-08 10:06 44.75008 -0.58338 35963 ft 459 kts 25°
2026-05-08 10:07 44.80661 -0.54173 35961 ft 458 kts 25°
2026-05-08 10:07 44.86301 -0.50011 35963 ft 457 kts 25°
2026-05-08 10:08 44.91934 -0.45843 35957 ft 457 kts 25°
2026-05-08 10:08 44.97522 -0.41701 35958 ft 457 kts 25°
2026-05-08 10:09 45.03147 -0.37522 35967 ft 457 kts 25°
2026-05-08 10:09 45.08772 -0.33334 35956 ft 457 kts 25°
2026-05-08 10:10 45.14397 -0.29136 35962 ft 457 kts 25°
2026-05-08 10:10 45.19981 -0.24959 35978 ft 457 kts 25°
2026-05-08 10:11 45.25606 -0.20742 35965 ft 457 kts 25°
2026-05-08 10:11 45.31209 -0.16532 35966 ft 457 kts 25°
2026-05-08 10:12 45.36822 -0.12305 35965 ft 457 kts 25°
2026-05-08 10:12 45.42396 -0.08097 35974 ft 456 kts 25°
2026-05-08 10:13 45.47994 -0.03863 35968 ft 455 kts 25°
2026-05-08 10:13 45.53586 0.00377 35975 ft 455 kts 24°
2026-05-08 10:14 45.59170 0.04621 35991 ft 454 kts 24°
2026-05-08 10:14 45.64739 0.08862 35979 ft 453 kts 24°